Home   Weather   Cape Canaveral   Past weeks

Flag for USA Past Weather in Cape Canaveral, Florida, USA — Yesterday and Last 2 Weeks

Now
76 °F

Sunny.


Feels Like: 78 °F
Forecast: 60 / 75 °F
Wind: 7 mph from Southeast

Location: Cape Kennedy

Current Time: Jan 19, 2017 at 4:49:39 pm

Latest Report: Jan 19, 2017 at 3:58 pm


Visibility: 10 mi

Pressure: 29.98 "Hg

Humidity: 71%

Dew Point: 66 °F

Location of Cape CanaveralLocation

Past Weather in Cape Canaveral — Graph

°F

Cape Canaveral Temperature Yesterday

Maximum temperature yesterday: 80 °F (at 1:58 pm)
Minimum temperature yesterday: 61 °F (at 12:58 am)
Average temperature yesterday: 68 °F

High & Low Weather Summary for the Past Weeks

 TemperatureHumidityPressure
High80 °F (Jan 18, 1:58 pm)94% (Jan 6, 4:23 am)30.59 "Hg (Jan 6, 4:23 am)
Low41 °F (Jan 8, 7:58 am)44% (Jan 9, 10:58 am)29.80 "Hg (Jan 4, 3:58 pm)
Average65 °F79%30.24 "Hg
* Reported Jan 4 2:58 pm — Jan 19 2:58 pm, Cape Canaveral, Weather by CustomWeather, © 2017

Note: Actual official high and low records may vary slightly from our data, if they occured in-between our weather recording intervals... More about our weather records

Advertising

Cape Canaveral Weather History for the Previous 24 Hours

Scroll right to see more
 ConditionsComfort  
Time TempWeatherWind HumidityBarometerVisibility
2:58 pm
Thu, Jan 19
76 °FSunny.6 mph70%29.98 "Hg10 mi
1:58 pm76 °FSunny.7 mph67%30.00 "Hg10 mi
1:23 pm73 °FBroken clouds.6 mph74%30.01 "Hg10 mi
12:58 pm76 °FPartly sunny.7 mph69%30.03 "Hg10 mi
11:58 am76 °FPassing clouds.6 mph67%30.07 "Hg10 mi
10:58 am74 °FScattered clouds.7 mph72%30.09 "Hg10 mi
9:58 am70 °FSunny.7 mph76%30.10 "Hg10 mi
8:58 am67 °FSunny.6 mph80%30.09 "Hg4 mi
7:58 am61 °FSunny.5 mph91%30.08 "Hg10 mi
7:08 am61 °FFog.5 mph94%30.06 "Hg5 mi
5:58 am61 °FClear.5 mph90%30.06 "Hg7 mi
5:18 am63 °FClear.3 mph88%30.04 "Hg8 mi
4:58 am64 °FClear.5 mph85%30.05 "Hg10 mi
4:13 am64 °FClear.5 mph83%30.04 "Hg10 mi
2:58 am64 °FClear.6 mph86%30.07 "Hg6 mi
1:58 am65 °FClear.3 mph87%30.06 "Hg6 mi
1:18 am66 °FClear.7 mph83%30.05 "Hg5 mi
12:58 am66 °FClear.6 mph83%30.06 "Hg6 mi
12:03 am66 °FClear.5 mph83%30.07 "Hg8 mi
11:33 pm
Wed, Jan 18
64 °FClear.3 mph88%30.09 "Hg8 mi
10:58 pm63 °FClear.No wind88%30.10 "Hg10 mi
9:58 pm64 °FPassing clouds.No wind89%30.11 "Hg10 mi
8:58 pm65 °FClear.3 mph84%30.11 "Hg10 mi
7:58 pm65 °FClear.5 mph82%30.11 "Hg10 mi
6:58 pm67 °FClear.No wind79%30.11 "Hg10 mi
5:58 pm74 °FClear.No wind66%30.11 "Hg10 mi
4:58 pm79 °FPassing clouds.6 mph56%30.10 "Hg10 mi
Weather by CustomWeather, © 2017

See weather overviewHow to use our weather pages